Probability
0 0 0 0 0 1 2 3 3 3 3 3 3 4 3 3 3 3 3 3 2 1 0 0 0 0 0 0 0 0 0 0 0 0 0 0 0 0 0 0 0 0 0
0 0 0 0 0 1 2 3 3 3 3 3 3 2 3 3 3 3 3 3 1 0 0 0 0 0 0 0 0 0 0 0 0 0 0 0 0 0 0 0 0 0 0
0 0 0 0 0 0 1 1 2 3 3 3 3 2 2 3 3 3 3 2 1 0 0 0 0 0 0 0 0 0 0 0 0 0 0 0 0 0 0 0 0 0 0
0 0 0 0 0 0 0 0 1 2 3 3 3 3 2 2 2 2 2 1 0 0 0 0 0 0 0 0 0 0 0 0 0 0 0 0 0 0 0 0 0 0 0
0 0 0 0 0 0 0 0 1 2 2 2 3 3 2 1 1 1 1 0 0 0 0 0 0 0 0 0 0 0 0 0 0 0 0 0 0 0 0 0 0 0 0
0 0 0 0 0 0 0 1 2 2 1 1 2 2 1 0 0 0 0 0 0 0 0 0 0 0 0 0 0 0 0 0 0 0 0 0 0 0 0 0 0 0 0
0 0 0 0 0 0 0 1 1 1 0 0 1 1 0 0 0 0 0 0 0 0 0 0 0 0 0 0 0 0 0 0 0 0 0 0 0 0 0 0 0 0 0
0 0 0 0 0 0 0 0 0 0 0 0 0 0 0 0 0 0 0 0 0 0 0 0 0 0 0 0 0 0 0 0 0 0 0 0 0 0 0 0 0 0 0
0 0 0 0 0 0 0 0 0 0 0 0 0 0 0 0 0 0 0 0 0 0 0 0 0 0 0 0 0 0 0 0 0 0 0 0 0 0 0 0 0 0 0
0 0 0 0 0 0 0 0 0 0 0 0 0 0 0 0 0 0 0 0 0 0 0 0 0 0 0 0 0 0 0 0 0 0 0 0 0 0 0 0 0 0 0
0 0 0 0 0 0 0 0 0 0 0 0 0 0 0 0 0 0 0 0 0 0 0 0 0 0 0 0 0 0 0 0 0 0 0 0 0 0 0 0 0 0 0
0 0 0 0 0 0 0 0 0 0 0 0 0 0 0 0 0 0 0 0 0 0 0 0 0 0 0 0 0 0 0 0 0 0 0 0 0 0 0 0 0 0 0
0 0 0 0 0 0 0 0 0 0 0 0 0 0 0 0 0 0 0 0 0 0 0 0 0 0 0 0 0 0 0 0 0 0 0 0 0 0 0 0 0 0 0
0 0 0 0 0 0 0 0 0 0 0 0 0 0 0 0 0 0 0 0 0 0 0 0 0 0 0 0 0 0 0 0 0 0 0 0 0 0 0 0 0 0 0
0 0 0 0 0 0 0 0 0 0 0 0 0 0 0 0 0 0 0 0 0 0 0 0 0 0 0 0 0 0 0 0 0 0 0 0 0 0 0 0 0 0 0
0 0 0 0 0 0 0 0 0 0 0 0 0 0 0 0 0 0 0 0 0 0 0 0 0 0 0 0 0 0 0 0 0 0 0 0 0 0 0 0 0 0 0
0 0 0 0 0 0 0 0 0 0 0 0 0 0 0 0 0 0 0 0 0 0 0 0 0 0 0 0 0 0 0 0 0 0 0 0 0 0 0 0 0 0 0
0 0 0 0 0 0 0 0 0 0 0 0 0 0 0 0 0 0 0 0 0 0 0 0 0 0 0 0 0 0 0 0 0 0 0 0 0 0 0 0 0 0 0
0 0 0 0 0 0 0 0 0 0 0 0 0 0 0 0 0 0 0 0 0 0 0 0 0 0 0 0 0 0 0 0 0 0 0 0 0 0 0 0 0 0 0
0 0 0 0 0 0 0 0 0 0 0 0 0 0 0 0 0 0 0 0 0 0 0 0 0 0 0 0 0 0 0 0 0 0 0 0 0 0 0 0 0 0 0
0 0 0 0 0 0 0 0 0 0 0 0 0 0 0 0 0 0 0 0 0 0 0 0 0 0 0 0 0 0 0 0 0 0 0 0 0 0 0 0 0 0 0
0 0 0 0 0 0 0 0 0 0 0 0 0 0 0 0 0 0 0 0 0 0 0 0 0 0 0 0 0 0 0 0 0 0 0 0 0 0 0 0 0 0 0
0 0 0 0 0 0 0 0 0 0 0 0 0 0 0 0 0 0 0 0 0 0 0 0 0 0 0 0 0 0 0 0 0 0 0 0 0 0 0 0 0 0 0
0 0 0 0 0 0 0 0 0 0 0 0 0 0 0 0 0 0 0 0 0 0 0 0 0 0 0 0 0 0 0 0 0 0 0 0 0 0 0 0 0 0 0
0 0 0 0 0 0 0 0 0 0 0 0 0 0 0 0 0 0 0 0 0 0 0 0 0 0 0 0 0 0 0 0 0 0 0 0 0 0 0 0 0 0 0
0 0 0 0 0 0 0 0 0 0 0 0 0 0 0 0 0 0 0 0 0 0 0 0 0 0 0 0 0 0 0 0 0 0 0 0 0 0 0 0 0 0 0
Wind_Speed
10 10 12 12 13 14 14 15 14 14 14 15 15 15 15 16 15 15 15 14 16 15 13 14 14 12 10 9 8 8 9 8 8 3 2 4 6 6 5 5 4 5 5
9 10 11 11 12 12 13 14 13 13 13 13 13 14 14 14 14 15 15 15 15 15 14 14 14 11 13 10 9 9 8 8 7 6 3 3 4 6 5 5 4 3 3
9 9 10 10 10 12 12 12 12 12 12 11 12 13 13 13 13 14 14 14 14 14 14 14 13 13 12 9 9 8 7 5 5 4 4 3 2 3 4 3 4 3 3
8 9 9 10 10 10 10 10 10 10 11 11 11 12 11 11 11 11 12 11 12 11 11 11 11 12 12 11 9 8 7 6 5 4 4 3 3 3 4 4 4 3 3
9 9 9 9 8 8 8 8 8 8 8 9 9 10 9 9 9 10 10 10 10 9 8 8 8 8 9 9 7 7 7 6 5 5 4 4 4 5 5 4 4 3 2
9 9 8 7 7 7 7 6 6 6 7 7 8 9 8 6 9 11 10 8 8 8 7 6 5 6 6 8 8 8 8 8 7 6 5 6 6 6 5 5 5 4 3
9 8 7 6 6 6 5 5 6 6 5 6 7 7 7 8 10 11 11 7 7 7 6 6 4 4 6 6 7 6 5 5 7 7 7 6 7 7 8 7 6 4 3
8 8 6 6 6 4 4 5 5 4 4 4 4 5 5 5 9 10 10 7 5 5 5 6 7 6 6 7 7 5 4 3 4 4 4 5 5 6 7 6 6 4 3
7 7 6 6 5 4 5 4 3 3 3 2 3 3 4 4 8 10 9 5 5 5 4 5 6 6 9 11 9 8 6 5 7 8 8 8 8 9 8 6 6 4 3
8 7 6 5 5 5 5 4 2 2 2 2 2 2 3 4 7 9 10 5 6 5 5 4 5 7 11 11 8 8 8 6 6 7 8 8 7 8 8 5 5 4 3
6 5 5 4 4 4 3 2 2 3 3 3 3 2 3 3 7 9 9 5 6 6 5 4 5 10 11 10 8 6 8 8 7 7 6 5 5 4 4 3 2 2 2
5 5 4 3 3 2 3 2 3 4 4 4 3 3 2 2 4 7 9 8 8 6 5 4 6 12 12 11 8 10 13 10 6 6 5 4 4 3 3 4 4 4 4
4 4 3 2 2 2 3 3 3 3 4 4 4 4 3 2 4 7 9 10 9 6 6 9 11 13 12 9 11 12 8 6 5 5 5 3 3 4 4 4 4 5 5
4 4 2 2 2 1 1 2 3 3 4 4 5 5 4 3 3 4 4 6 8 8 8 10 13 13 10 10 8 7 4 4 4 4 5 4 4 3 3 2 2 2 2
4 3 3 2 2 2 2 1 2 1 2 4 4 4 5 5 5 7 6 5 6 7 8 6 5 5 5 5 5 5 4 4 4 4 5 4 4 3 3 2 2 1 1
4 3 3 3 2 2 3 2 3 3 5 5 5 5 3 6 10 11 11 12 13 14 8 6 6 5 6 5 5 5 4 4 4 4 4 4 4 3 3 2 1 1 1
4 4 3 3 3 3 3 4 3 4 6 7 8 8 8 11 12 12 13 14 14 12 6 5 5 5 5 5 5 4 4 4 3 4 4 3 3 3 3 2 2 1 1
3 3 3 3 3 3 3 3 3 4 4 3 5 9 10 11 12 13 14 11 7 5 4 5 5 5 5 5 5 4 4 4 4 3 3 3 3 3 3 3 2 2 2
3 2 2 2 2 3 3 3 3 4 4 4 4 5 7 10 11 11 9 5 6 5 4 4 4 5 4 4 4 4 4 4 4 4 3 3 3 3 3 3 2 3 2
2 2 2 2 3 3 3 4 4 4 4 4 4 4 4 5 4 5 4 4 4 5 4 4 4 4 4 4 4 4 4 4 4 3 3 3 3 3 3 3 3 3 3
1 1 2 2 3 3 3 4 4 4 4 4 3 4 6 4 4 4 4 4 4 4 4 4 4 4 4 4 4 4 5 4 4 3 3 3 3 3 3 3 3 3 2
1 1 2 2 3 3 3 3 4 4 5 5 4 5 7 4 4 4 4 3 3 3 3 4 4 3 3 3 4 4 4 4 4 4 3 3 3 3 3 3 3 3 2
1 1 2 2 3 4 4 4 4 4 4 4 4 4 4 4 4 4 4 3 3 3 3 3 4 3 3 2 2 3 4 4 4 4 4 4 3 3 3 4 4 4 3
1 2 3 3 3 4 4 4 4 4 5 4 4 4 4 4 4 4 4 3 3 3 3 3 3 3 4 2 2 2 2 2 3 4 5 5 4 3 3 4 4 4 4
1 2 3 3 3 4 4 4 4 4 4 4 4 4 4 4 4 4 3 3 3 3 3 3 2 3 3 3 2 2 3 4 4 4 4 4 5 5 4 5 4 4 4
2 2 3 3 3 3 4 4 4 4 4 4 4 4 4 4 4 3 3 3 3 2 2 2 2 2 2 2 3 4 4 5 6 6 5 4 5 5 5 4 5 5 5
Wind_Direction
265 259 252 248 243 239 236 235 233 231 228 225 221 218 217 216 213 214 216 213 215 216 214 216 219 215 215 213 213 214 218 221 233 220 175 161 171 176 172 174 182 186 190
272 266 259 254 247 241 238 236 232 230 227 225 222 219 218 216 213 213 215 214 215 216 215 214 216 212 214 212 210 212 215 214 216 213 178 164 173 174 164 166 170 177 181
277 269 264 258 251 247 243 240 234 229 226 221 219 219 217 216 214 213 215 214 216 217 214 213 212 208 211 209 208 209 208 203 204 196 178 153 148 151 152 152 160 168 173
279 271 266 260 254 251 249 244 237 232 225 221 218 218 218 215 213 211 212 212 214 214 213 212 209 206 206 204 204 203 194 187 184 180 168 152 146 140 153 162 173 178 179
278 272 268 268 262 256 250 245 239 232 226 221 217 216 214 212 210 207 206 207 208 207 205 206 206 201 201 199 193 192 186 187 181 177 172 160 161 162 179 168 176 167 170
275 271 273 273 267 258 251 246 238 231 223 216 213 210 208 208 199 194 196 197 196 195 194 190 182 179 177 176 179 182 184 186 185 181 182 181 181 176 159 161 160 165 189
273 273 272 269 266 263 257 242 233 227 220 212 208 203 205 200 184 182 183 185 183 184 179 171 163 163 164 157 151 146 148 159 170 174 177 182 175 172 167 168 176 179 183
273 271 270 263 261 261 252 243 236 223 210 204 202 199 194 185 171 172 170 172 164 160 160 163 160 156 157 149 138 133 126 121 137 150 159 160 157 157 166 164 156 133 96
273 270 264 256 251 241 237 237 235 218 206 190 178 178 170 162 154 158 155 147 142 138 135 143 150 148 149 145 139 134 122 102 90 102 105 110 119 130 137 133 139 143 157
271 268 263 253 243 236 230 223 204 191 187 164 149 151 155 157 149 150 148 142 143 139 127 127 139 147 148 147 145 144 143 134 120 103 95 97 104 116 126 138 153 159 148
277 270 260 246 237 233 221 202 174 161 149 146 137 124 130 147 148 147 147 146 149 144 140 140 138 141 141 140 138 141 144 135 125 117 109 104 101 104 107 95 95 148 156
276 264 255 241 228 210 191 184 166 158 149 146 136 121 104 117 134 144 144 143 142 140 140 136 134 137 134 130 125 127 128 123 121 120 119 120 119 110 93 81 73 61 54
274 262 255 239 223 197 184 181 171 164 162 159 155 152 141 119 120 126 132 132 130 125 125 130 129 128 122 116 118 123 122 123 127 128 129 121 105 104 100 88 75 74 70
260 255 241 217 210 187 184 184 180 179 172 167 167 163 154 145 136 132 129 123 119 116 117 118 117 115 108 106 112 111 104 111 123 126 119 110 104 108 107 103 106 108 104
256 243 232 216 192 177 166 175 175 178 175 171 171 165 163 167 164 151 144 139 138 134 126 117 116 122 119 116 109 103 104 109 107 111 121 124 125 124 117 112 116 134 151
246 232 219 204 185 177 160 125 95 121 122 130 138 141 132 137 141 142 139 136 136 137 128 133 137 137 137 137 134 125 117 117 118 122 128 134 141 145 139 135 145 172 190
241 226 213 196 185 183 172 161 144 103 109 122 131 133 135 138 138 139 140 138 136 136 126 136 141 143 141 140 141 141 140 133 129 132 137 141 143 147 152 157 164 173 192
253 231 212 198 188 183 174 162 157 151 139 116 118 129 134 136 137 137 137 132 130 127 129 140 144 144 144 145 145 142 137 135 136 140 143 146 152 158 165 174 180 190 200
248 228 210 192 176 169 157 146 144 141 136 130 118 115 119 126 128 130 133 131 140 141 136 134 136 138 138 140 138 138 142 145 146 151 154 157 162 169 177 183 189 184 206
250 215 190 172 161 159 153 149 147 143 140 140 137 131 127 127 131 130 123 123 129 133 134 133 131 132 134 138 140 143 147 148 153 157 159 161 167 178 184 190 195 201 214
247 197 164 155 157 154 151 147 144 143 142 135 126 131 134 134 132 128 125 123 127 130 132 130 129 132 134 138 145 154 158 160 164 167 168 169 172 181 188 194 200 207 216
235 193 166 152 144 139 136 134 134 135 134 126 115 112 111 108 113 113 108 104 99 102 114 124 127 129 139 149 157 163 168 170 171 172 173 174 180 185 188 193 199 205 208
206 154 139 131 128 126 125 125 127 128 126 123 123 119 113 109 109 110 106 101 100 101 104 115 124 128 130 141 157 170 179 182 181 178 177 179 184 188 192 198 200 205 211
139 141 134 127 122 124 123 122 121 122 123 123 120 115 113 111 110 107 104 100 98 101 107 114 126 140 146 150 155 166 177 180 177 183 186 186 189 193 195 200 208 210 213
82 109 115 118 120 120 119 117 117 118 121 121 118 115 113 112 111 108 106 107 109 109 111 117 128 144 160 172 179 188 193 192 191 184 186 190 193 197 200 204 206 206 208
82 95 102 107 111 115 119 120 119 120 120 117 117 120 121 120 118 116 116 116 118 119 119 123 140 158 178 189 196 200 203 204 198 192 189 190 194 199 199 203 203 206 206